CZ-6A DEB

Satellite information

Favourite Embed

Satellite Type and Status

DEBRISIN ORBIT

Key statistics

Satellite CZ-6A DEB at a glance.

Uptime

970

Days in orbit

Revolutions

≈ 14.1

Per day

Orbit

SSO

Sun Synchronous Orbit

Inclination

98.8

Latest

Satellite identification and parameters

Extended collection of information and parameters for CZ-6A DEB.

Object identification

Identified? True

Debris? True

Object name: CZ-6A DEB

International designator: 2022-151AC

Object number (NORAD): 54285

Object ID (CCSDS): 54285

Country: PEOPLES REPUBLIC OF CHINA (PRC)

Current information (Y/N): Y

RCS size: SMALL

Orbital parameters

Period: 102.152 minutes

Inclination: 98.8397 deg

SMA: 7238.656 km

Apoapsis: 911.229 km

Periapsis: 809.813 km

RAAN: 184.1597 deg

Eccentricy: 0.0070052

Argument of periapsis: 258.3563 deg

Mean anomaly: 100.9739 deg

Mean motion: 14.09664723 rev/day

Mean motion (dot): 0.00001745 rev/day2

B* drag term: 0.00099726 1/REarth

Two-line elements (TLE)

Creation date: July 8, 2025, 2:27 a.m.

Reference frame: TEME

Reference center: EARTH

Epoch: July 7, 2025, 9:55 p.m. UTC

TLE line 0: 0 CZ-6A DEB

TLE line 1: 1 54285U 22151AC 25188.91378284 .00001745 00000-0 99726-3 0 9994

TLE line 2: 2 54285 98.8397 184.1597 0070052 258.3563 100.9739 14.09664723135539

Live tracking on map

Real-time ground track for satellite CZ-6A DEB.

In-orbit conjunctions

A list of the most updated potential collisions computed for object CZ-6A DEB.

Target Orbit TCA Probability of collision Miss distance Type
COSMOS 1275 DEB LEO 2025-03-12 14:00:11 0.0001267911 173.0 (m) DEBRIS
CZ-6A DEB LEO 2024-10-22 09:59:24 0.0001691647 619.0 (m) DEBRIS
SL-3 R/B LEO 2024-09-14 15:35:24 0.000155902 371.0 (m) ROCKET BODY
CELESTIS 02/TAURUS R/B SSO 2024-08-25 13:27:28 0.0001021963 255.0 (m) ROCKET BODY

Associated space launch

Chinese satellite reported for atmospheric/ocean/environmental/spatial parameter research purposes, details TBD.

CZ-6A DEB was lifted into orbit during the mission ‘Long March 6A | Yunhai 3’, on board a Long March 6A space rocket.

The launch took place on Nov. 11, 2022, 10:52 p.m. from Launch Complex 9A.

For more information about the launch, click the button.

Launch to space Long March 6A | Yunhai 3
Long March 6A | Yunhai 3

Agency: N/A

Status: Launch Successful

Launch date: Nov. 11, 2022, 10:52 p.m. UTC

Rocket: Long March 6A

Launch pad: Launch Complex 9A

Location: Taiyuan Satellite Launch Center, People's Republic of China

...

Latest news about this satellite

There are no fresh news available about this satellite. Check back as we update our databases every day.


Newsletter sign-up

Weekly statistics, charts and insights to help you stay on top of the space industry.